Englewood, Florida, United States (34223)
Lat: 26.96N, Lon: 82.35W
Wx Zone: FLZ060
Local Info
Past Weather Observations for Tuesday, October 28, 2014

NOTE: This archive is for the closest National Weather Service station to Englewood. Information may differ from the station used for current weather conditions.

Click here for Long-term Archive

Time Weather Temperature Dewpoint Humidity Pressure Winds Precip Visibility
23:53
Clear
72°F / 22°C 66°F / 19°C 83% 30.12 in
(1020 mb)
SE 5.8 mph
(SE 9 kph)
- 10SM
22:53
Clear
72°F / 22°C 66°F / 19°C 83% 30.12 in
(1020 mb)
ESE 6.9 mph
(ESE 11 kph)
- 10SM
21:53
Clear
73°F / 23°C 64°F / 18°C 74% 30.15 in
(1021 mb)
E 5.8 mph
(E 9 kph)
- 10SM
20:53
Clear
73°F / 23°C 64°F / 18°C 74% 30.12 in
(1020 mb)
ESE 6.9 mph
(ESE 11 kph)
- 10SM
19:53
Clear
73°F / 23°C 64°F / 18°C 74% 30.12 in
(1020 mb)
ESE 4.6 mph
(ESE 7 kph)
- 10SM
18:53
Clear
73°F / 23°C 64°F / 18°C 74% 30.09 in
(1019 mb)
E 5.8 mph
(E 9 kph)
- 10SM
17:53
Clear
77°F / 25°C 64°F / 18°C 65% 30.09 in
(1019 mb)
ENE 6.9 mph
(ENE 11 kph)
- 10SM
16:53
Clear
84°F / 29°C 63°F / 17°C 48% 30.09 in
(1019 mb)
ENE 5.8 mph
(ENE 9 kph)
- 10SM
15:53
Partly Cloudy
82°F / 28°C 63°F / 17°C 51% 30.09 in
(1019 mb)
NE 8.1 mph
(NE 13 kph)
- 10SM
14:53
Partly Cloudy
84°F / 29°C 64°F / 18°C 51% 30.09 in
(1019 mb)
NE 5.8 mph
(NE 9 kph)
- 10SM
13:53
Partly Cloudy
88°F / 31°C 63°F / 17°C 43% 30.09 in
(1019 mb)
Calm - 10SM
12:53
Mostly Cloudy
86°F / 30°C 64°F / 18°C 49% 30.12 in
(1020 mb)
SSE 5.8 mph
(SSE 9 kph)
- 10SM
11:53
Partly Cloudy
84°F / 29°C 63°F / 17°C 48% 30.15 in
(1021 mb)
ESE 8.1 mph
(ESE 13 kph)
- 10SM
10:53
Clear
82°F / 28°C 61°F / 16°C 48% 30.18 in
(1022 mb)
E 9.2 mph
(E 15 kph)
- 10SM
09:53
Clear
81°F / 27°C 64°F / 18°C 58% 30.18 in
(1022 mb)
SE 10.4 mph
(SE 17 kph)
- 10SM
08:53
Clear
77°F / 25°C 66°F / 19°C 69% 30.18 in
(1022 mb)
E 6.9 mph
(E 11 kph)
- 10SM
07:53
Clear
68°F / 20°C 64°F / 18°C 88% 30.18 in
(1022 mb)
E 4.6 mph
(E 7 kph)
- 10SM
06:53
Clear
Fog And Mist
63°F / 17°C 61°F / 16°C 94% 30.15 in
(1021 mb)
ENE 5.8 mph
(ENE 9 kph)
- 6SM
05:53
Clear
Fog And Mist
61°F / 16°C 61°F / 16°C 100% 30.15 in
(1021 mb)
Calm - 5SM
04:53
Clear
Fog And Mist
63°F / 17°C 61°F / 16°C 94% 30.12 in
(1020 mb)
Calm - 6SM
03:53
Clear
63°F / 17°C 61°F / 16°C 94% 30.12 in
(1020 mb)
E 3.5 mph
(E 6 kph)
- 10SM
02:53
Clear
63°F / 17°C 61°F / 16°C 94% 30.12 in
(1020 mb)
E 3.5 mph
(E 6 kph)
- 10SM
01:53
Clear
63°F / 17°C 61°F / 16°C 94% 30.12 in
(1020 mb)
Calm - 10SM
00:53
Clear
66°F / 19°C 63°F / 17°C 88% 30.12 in
(1020 mb)
SE 3.5 mph
(SE 6 kph)
- 10SM
Time Weather Temperature Dewpoint Humidity Pressure Winds Precip Visibility


Weather for websites

WeatherForYou.com, LLC is not responsible for any damages or problems caused by this service. Current weather conditions are obtained from the closest station including government and personal stations which may have varying degrees of accuracy. Weather forecasts are derived from the NOAA NDFD. Like all things, this site belongs to Jesus Christ... He just trusts me to maintain it. If you have any questions or comments email webmaster@weatherforyou.com

Copyright © 2014, WeatherForYou.com LLC. All rights reserved.